Location: Balsareny
(41.8670°N, 1.8830°E)
Time: 21:09:42
(UTC+01:00)

N. Korean satellite - Pass Details

Date: 09 December 2021
Orbit: 447 x 490 km, 97.3° (Epoch: 28 January)

Event Time Altitude Azimuth Distance (km) Brightness Sun altitude
Rises 05:02:41 0° 36° (NE) 2,455 10.6 -33.7°
Maximum altitude 05:07:07 11° 91° (E) 1,503 9.9 -32.9°
Drops below altitude 10° 05:08:12 10° 110° (ESE) 1,575 9.9 -32.7°
Sets 05:11:32 0° 147° (SSE) 2,445 10.6 -32.0°
